Simultaneous Nadir Overpasses (SNOs) Predictions

Prediction of SNOs between METOP-B and NPP Satellite Orbit:

Table of predicted SNOs for the next 14.0 days since TLE Epoch: 5/30/2013
Index Date (METOP-B) Time (METOP-B) Lat,Lon (METOP-B) SZA (METOP-B ) Date (NPP) Time (NPP) Lat,Lon (NPP) SZA (NPP ) Distance(km) Time Diff (sec)
1 06/12/2013 10:22:36 73.23, 17.64 50.10 06/12/2013 10:21:28 73.25, 15.15 50.26 79.93 68
2 06/12/2013 11:13:19 -73.14,-175.23 129.99 06/12/2013 11:12:10 -73.15,-177.31 129.86 66.98 69
3 06/12/2013 12:04:03 72.95, -8.29 49.85 06/12/2013 12:02:52 72.95, -9.58 49.93 42.01 71
4 06/12/2013 12:54:47 -72.82, 158.74 130.28 06/12/2013 12:53:34 -72.85, 157.96 130.19 26.09 73
5 06/12/2013 13:45:31 72.63, -34.31 49.55 06/12/2013 13:44:16 72.66, -34.33 49.60 2.97 75
6 06/12/2013 14:36:12 -72.64, 133.05 130.44 06/12/2013 14:35:00 -72.65, 132.99 130.41 2.14 72
7 06/12/2013 15:26:53 72.61, -59.69 49.53 06/12/2013 15:25:45 72.61, -59.61 49.54 2.70 68
8 06/12/2013 16:17:34 -72.62, 107.67 130.46 06/12/2013 16:16:29 -72.61, 107.71 130.47 2.22 65
9 06/12/2013 17:08:14 72.64, -84.97 49.55 06/12/2013 17:07:15 72.62, -85.00 49.54 2.73 59
10 06/12/2013 17:58:56 -72.60, 82.28 130.49 06/12/2013 17:57:59 -72.61, 82.33 130.46 1.85 57
11 06/12/2013 18:49:36 72.62,-110.35 49.53 06/12/2013 18:48:45 72.62,-110.38 49.55 1.05 51
12 06/12/2013 19:40:17 -72.63, 57.01 130.46 06/12/2013 19:39:29 -72.62, 56.94 130.46 2.66 48
13 06/12/2013 20:30:58 72.60,-135.73 49.51 06/12/2013 20:30:14 72.58,-135.66 49.49 3.35 44
14 06/12/2013 21:21:39 -72.61, 31.62 130.48 06/12/2013 21:20:59 -72.62, 31.55 130.46 2.68 40
15 06/12/2013 22:12:20 72.58,-161.12 49.49 06/12/2013 22:11:44 72.58,-161.05 49.50 2.28 36
16 06/12/2013 23:03:01 -72.59, 6.24 130.51 06/12/2013 23:02:28 -72.58, 6.27 130.51 1.71 33
17 06/12/2013 23:53:41 72.61, 173.61 49.51 06/12/2013 23:53:14 72.59, 173.57 49.50 2.60 27
18 06/13/2013 00:44:23 -72.57, -19.14 130.53 06/13/2013 00:43:58 -72.58, -19.11 130.51 1.75 25
19 06/13/2013 01:35:03 72.59, 148.22 49.49 06/13/2013 01:34:44 72.59, 148.18 49.50 1.63 19
20 06/13/2013 02:25:44 -72.60, -44.42 130.51 06/13/2013 02:25:28 </
